Location: Azul
(36.7830°S, 59.8500°W)
Time: 00:38:32
(UTC-03:00)

FO-29 - Pass Details

Date: 23 October 2021
Orbit: 799 x 1322 km, 98.5° (Epoch: 28 November)

Event Time Altitude Azimuth Distance (km) Brightness Sun altitude
Rises 00:13:39 0° 187° (S) 4,039 13.6 -41.2°
Reaches altitude 10° 00:17:36 10° 209° (SSW) 3,167 12.7 -41.4°
Maximum altitude 00:21:12 15° 239° (WSW) 2,898 12.2 -41.5°
Enters shadow 00:24:39 11° 267° (W) 3,241 12.3 -41.6°
